Carmi, IL

12:09 AM CDT on July 21, 2017 (GMT -0500)
Carmi Municipal

Weather History for KCUL - March, 2013

Change the Weather History Date:

Friday, March 1, 2013

  Actual Average (KEHR) Record (KEHR)
Temperature  
Mean Temperature 36 °F -  
Max Temperature 38 °F 52 °F 74 °F (1976)
Min Temperature 33 °F 32 °F 10 °F (1980)
Degree Days  
Heating Degree Days 30    
Moisture  
Dew Point 33 °F    
Average Humidity 94    
Maximum Humidity 99    
Minimum Humidity 85    
Precipitation  
Precipitation 0.00 in - - ()
Sea Level Pressure  
Sea Level Pressure 30.07 in    
Wind  
Wind Speed 9 mph (NW)    
Max Wind Speed 14 mph    
Max Gust Speed -    
Visibility 5 miles    
Events Rain , Snow    
Averages and records for this station are not official NWS values.
T = Trace of Precipitation, MM = Missing Value Source: NWS Daily Summary

Daily Weather History Graph

Daily Weather History Graph

Search for Another Location

Airport or City:

Trip Planner

Search our weather history database for the weather conditions in past years. The results will help you decide how hot, cold, wet, or windy it might be!

Date:

Astronomy

Mar. 01, 2013 Rise Set
Actual Time 6:23 AM CST 5:46 PM CST
Civil Twilight 5:57 AM CST 6:12 PM CST
Nautical Twilight 5:26 AM CST 6:43 PM CST
Astronomical Twilight 4:56 AM CST 7:13 PM CST
Moon 10:14 PM CST (3/1) 8:15 AM CST (3/1)
Length of Visible Light 12h 15m
Length of Day
11h 22m
Waning Gibbous, 83% of the Moon is Illuminated
Mar 1
Waning Gibbous
Mar 4
Last Quarter
Mar 11
New
Mar 19
First Quarter
Mar 27
Full

Hourly Weather History & Observations

Time (CST) Temp. Windchill Dew Point Humidity Pressure Visibility Wind Dir Wind Speed Gust Speed Precip Events Conditions
12:15 AM 34.7 °F 27.5 °F 33.8 °F 97% 30.04 in 2.5 mi West 9.2 mph - N/A Snow Light Snow
12:35 AM 34.5 °F 27.9 °F 33.8 °F 97% 30.04 in 3.0 mi WNW 8.1 mph - N/A Snow Light Snow
12:55 AM 34.5 °F 27.3 °F 33.8 °F 97% 30.04 in 3.0 mi WNW 9.2 mph - N/A   Overcast
1:15 AM 34.7 °F 27.5 °F 33.8 °F 97% 30.04 in 3.0 mi West 9.2 mph - N/A   Overcast
1:35 AM 34.7 °F 27.5 °F 34.0 °F 97% 30.03 in 3.0 mi WNW 9.2 mph - N/A   Overcast
2:15 AM 34.7 °F 27.5 °F 34.0 °F 97% 30.03 in 4.0 mi WNW 9.2 mph - N/A   Overcast
2:35 AM 34.9 °F 28.3 °F 34.0 °F 97% 30.03 in 4.0 mi WNW 8.1 mph - N/A   Overcast
2:55 AM 34.7 °F 27.5 °F 34.0 °F 97% 30.03 in 4.0 mi WNW 9.2 mph - N/A Snow Light Snow
3:15 AM 34.7 °F 28.1 °F 33.8 °F 97% 30.03 in 3.0 mi WNW 8.1 mph - N/A Snow Light Snow
3:55 AM 34.7 °F 28.1 °F 33.8 °F 97% 30.03 in 4.0 mi WNW 8.1 mph - N/A   Overcast
4:15 AM 34.7 °F 28.1 °F 33.8 °F 97% 30.03 in 3.0 mi WNW 8.1 mph - N/A Snow Light Snow
4:35 AM 34.5 °F 28.6 °F 33.8 °F 97% 30.03 in 3.0 mi WNW 6.9 mph - N/A Snow Light Snow
5:15 AM 34.2 °F 28.2 °F 33.8 °F 99% 30.03 in 1.8 mi WNW 6.9 mph - N/A Snow Light Snow
5:35 AM 34.0 °F 28.0 °F 33.8 °F 99% 30.03 in 1.8 mi WNW 6.9 mph - N/A Snow Light Snow
5:55 AM 34.0 °F 28.8 °F 33.8 °F 99% 30.03 in 1.8 mi WNW 5.8 mph - N/A Snow Light Snow
6:15 AM 34.0 °F 28.8 °F 33.8 °F 99% 30.03 in 2.0 mi WNW 5.8 mph - N/A Snow Light Snow
6:35 AM 34.0 °F 28.8 °F 33.8 °F 99% 30.04 in 2.5 mi WNW 5.8 mph - N/A Snow Light Snow
6:55 AM 34.0 °F 28.8 °F 33.8 °F 99% 30.05 in 1.2 mi WNW 5.8 mph - N/A Snow Light Snow
7:15 AM 34.0 °F 28.0 °F 33.8 °F 99% 30.05 in 1.8 mi NW 6.9 mph - N/A Snow Light Snow
7:35 AM 34.0 °F 28.0 °F 33.8 °F 99% 30.06 in 1.8 mi NNW 6.9 mph - N/A Snow Light Snow
7:55 AM 33.8 °F 27.7 °F 33.1 °F 97% 30.06 in 3.0 mi North 6.9 mph - N/A Snow Light Snow
8:15 AM 34.0 °F 29.8 °F 33.1 °F 96% 30.07 in 3.0 mi North 4.6 mph - N/A Snow Light Snow
8:35 AM 34.2 °F 29.0 °F 33.3 °F 97% 30.07 in 5.0 mi North 5.8 mph - N/A Rain Light Rain
8:55 AM 34.7 °F 29.6 °F 33.3 °F 94% 30.07 in 5.0 mi North 5.8 mph - N/A Snow Light Snow
9:15 AM 35.6 °F 31.7 °F 34.0 °F 94% 30.07 in 5.0 mi NNW 4.6 mph - N/A Snow Light Snow
9:35 AM 36.1 °F 31.4 °F 34.0 °F 92% 30.07 in 5.0 mi NNW 5.8 mph - N/A Rain Light Rain
9:55 AM 36.3 °F 31.6 °F 33.8 °F 91% 30.07 in 7.0 mi NNW 5.8 mph - N/A   Overcast
10:15 AM 36.5 °F 31.8 °F 34.2 °F 91% 30.07 in 7.0 mi North 5.8 mph - N/A Rain Light Rain
10:35 AM 37.2 °F 31.9 °F 34.3 °F 89% 30.07 in 7.0 mi NNW 6.9 mph - N/A Rain Light Rain
10:55 AM 37.0 °F 31.0 °F 34.2 °F 89% 30.07 in 7.0 mi NNW 8.1 mph - N/A   Light Drizzle
11:15 AM 37.2 °F 31.2 °F 34.3 °F 89% 30.07 in 5.0 mi NNW 8.1 mph - N/A Rain Light Rain
11:35 AM 37.0 °F 30.4 °F 34.9 °F 92% 30.08 in 4.0 mi North 9.2 mph - N/A Rain Light Rain
11:55 AM 38.1 °F 31.7 °F 34.7 °F 87% 30.07 in 7.0 mi NNW 9.2 mph - N/A Rain Light Rain
12:15 PM 37.2 °F 31.9 °F 34.7 °F 91% 30.07 in 5.0 mi NNW 6.9 mph - N/A Rain Light Rain
12:35 PM 37.6 °F 31.6 °F 33.4 °F 85% 30.06 in 10.0 mi North 8.1 mph - N/A   Overcast
12:55 PM 37.4 °F 30.3 °F 34.2 °F 88% 30.06 in 7.0 mi NNW 10.4 mph - N/A Rain Light Rain
1:15 PM 37.4 °F 30.8 °F 34.5 °F 89% 30.06 in 7.0 mi NW 9.2 mph - N/A Rain Light Rain
1:35 PM 37.6 °F 31.0 °F 34.9 °F 90% 30.05 in 5.0 mi NNW 9.2 mph - N/A Rain Rain
1:55 PM 37.4 °F 29.3 °F 34.5 °F 89% 30.05 in 7.0 mi NNW 12.7 mph - N/A   Light Drizzle
2:15 PM 37.4 °F 30.3 °F 33.8 °F 87% 30.05 in 10.0 mi NNW 10.4 mph - N/A Snow Light Snow
2:35 PM 37.4 °F 30.8 °F 33.6 °F 86% 30.05 in 7.0 mi NW 9.2 mph - N/A   Mostly Cloudy
2:55 PM 37.4 °F 30.3 °F 33.4 °F 86% 30.05 in 10.0 mi NW 10.4 mph - N/A   Mostly Cloudy
3:15 PM 36.9 °F 30.1 °F 34.0 °F 89% 30.05 in 7.0 mi NW 9.2 mph - N/A Rain Light Rain
3:35 PM 36.7 °F 29.4 °F 34.0 °F 90% 30.06 in 7.0 mi North 10.4 mph - N/A Rain Light Rain
3:55 PM 36.5 °F 29.2 °F 34.5 °F 93% 30.06 in 4.0 mi NNW 10.4 mph - N/A Snow Light Snow
4:15 PM 36.5 °F 28.2 °F 34.2 °F 91% 30.06 in 7.0 mi NNW 12.7 mph - N/A Rain Light Rain
4:35 PM 35.6 °F 28.0 °F 33.4 °F 92% 30.07 in 5.0 mi NW 10.4 mph - N/A Snow Light Snow
4:55 PM 35.8 °F 30.1 °F 33.8 °F 92% 30.07 in 5.0 mi NW 6.9 mph - N/A Snow Light Snow
5:15 PM 35.8 °F 26.9 °F 33.1 °F 90% 30.07 in 5.0 mi NNW 13.8 mph - N/A   Mostly Cloudy
5:35 PM 35.1 °F 27.9 °F 33.1 °F 92% 30.08 in 5.0 mi NNW 9.2 mph - N/A   Overcast
5:55 PM 34.7 °F 28.1 °F 33.1 °F 94% 30.08 in 3.0 mi NW 8.1 mph - N/A Snow Light Snow
6:15 PM 34.7 °F 26.4 °F 32.4 °F 91% 30.09 in 10.0 mi NW 11.5 mph - N/A   Overcast
6:35 PM 34.7 °F 26.4 °F 32.0 °F 90% 30.09 in 10.0 mi NW 11.5 mph - N/A   Mostly Cloudy
6:55 PM 34.3 °F 25.9 °F 32.0 °F 91% 30.09 in 7.0 mi NW 11.5 mph - N/A   Scattered Clouds
7:15 PM 34.3 °F 25.9 °F 32.2 °F 92% 30.10 in 5.0 mi NW 11.5 mph - N/A Snow Light Snow
7:35 PM 34.0 °F 25.0 °F 32.2 °F 93% 30.10 in 5.0 mi NW 12.7 mph - N/A Snow Light Snow
8:15 PM 33.8 °F 26.4 °F 32.0 °F 93% 30.10 in 5.0 mi NW 9.2 mph - N/A Snow Light Snow
8:35 PM 33.8 °F 27.7 °F 32.2 °F 94% 30.11 in 5.0 mi NW 6.9 mph - N/A Snow Light Snow
8:55 PM 33.8 °F 25.8 °F 32.0 °F 93% 30.11 in 7.0 mi NW 10.4 mph - N/A Snow Light Snow
9:15 PM 33.4 °F 25.9 °F 32.0 °F 94% 30.11 in 3.0 mi WNW 9.2 mph - N/A Snow Light Snow
9:35 PM 33.3 °F 25.7 °F 32.0 °F 95% 30.11 in 2.0 mi NW 9.2 mph - N/A Snow Light Snow
9:55 PM 33.3 °F 25.7 °F 32.2 °F 96% 30.10 in 2.0 mi NW 9.2 mph - N/A Snow Light Snow
10:15 PM 33.1 °F 24.9 °F 32.2 °F 96% 30.10 in 2.5 mi NW 10.4 mph - N/A Snow Light Snow
10:35 PM 33.3 °F 25.1 °F 32.4 °F 96% 30.10 in 3.0 mi NW 10.4 mph - N/A Snow Light Snow
10:55 PM 33.3 °F 25.1 °F 32.4 °F 96% 30.10 in 4.0 mi NW 10.4 mph - N/A Snow Light Snow
11:15 PM 33.4 °F 24.8 °F 32.5 °F 96% 30.10 in 3.0 mi NW 11.5 mph - N/A Snow Light Snow
11:35 PM 33.4 °F 24.8 °F 32.4 °F 96% 30.10 in 4.0 mi NW 11.5 mph - N/A Snow Light Snow
11:55 PM 33.4 °F 25.4 °F 32.4 °F 96% 30.10 in 4.0 mi NNW 10.4 mph - N/A Snow Light Snow